CW0561 Weather Reports


time (UTC)temp
C
wind
direction
speed
KPH
gust
KPH
rain 1hr
cm
rain 24hr
cm
rain mn
cm
humidity
%
barometer
mb
20240518194554 27 257 4.8 38.6 0.00 0.00 0.00 47 1003.9
20240518193554 27 286 9.7 37.0 0.00 0.00 0.00 48 1003.8
20240518192554 27 290 0.0 27.4 0.00 0.00 0.00 49 1003.6
20240518191555 27 308 22.5 24.1 0.00 0.00 0.00 48 1003.5
20240518190554 26 261 9.7 29.0 0.00 0.00 0.00 51 1003.4
20240518185554 27 280 17.7 29.0 0.00 0.00 0.00 50 1003.3
20240518182554 26 326 19.3 24.1 0.00 0.00 0.00 53 1003.0
20240518181554 27 259 0.0 17.7 0.00 0.00 0.00 55 1002.9
20240518180554 26 241 0.0 19.3 0.00 0.00 0.00 55 1002.7
20240518174553 26 300 8.0 29.0 0.00 0.00 0.00 56 1002.6
20240518173554 26 287 8.0 19.3 0.00 0.00 0.00 57 1002.6
20240518172553 26 265 19.3 29.0 0.00 0.00 0.00 56 1002.5
20240518170553 25 269 14.5 19.3 0.00 0.00 0.00 57 1002.3
20240518165553 25 245 4.8 17.7 0.00 0.00 0.00 60 1002.3
20240518164553 25 189 0.0 17.7 0.00 0.00 0.00 60 1002.2
20240518163553 25 192 8.0 17.7 0.00 0.00 0.00 59 1002.0
20240518162553 25 209 0.0 14.5 0.00 0.00 0.00 60 1001.9
20240518161553 25 199 4.8 19.3 0.00 0.00 0.00 60 1001.8
20240518160552 25 213 3.2 14.5 0.00 0.00 0.00 59 1001.8
20240518155552 24 247 0.0 29.0 0.00 0.00 0.00 61 1001.6
20240518154553 24 247 0.0 19.3 0.00 0.00 0.00 62 1001.6
20240518153552 23 311 0.0 22.5 0.00 0.00 0.00 63 1001.4
20240518152552 23 194 14.5 22.5 0.00 0.00 0.00 64 1001.2
20240518151552 23 180 8.0 17.7 0.00 0.00 0.00 66 1001.2
20240518150552 23 213 0.0 24.1 0.00 0.00 0.00 65 1001.2
20240518145552 23 198 9.7 24.1 0.00 0.00 0.00 65 1001.2
20240518144552 22 240 4.8 27.4 0.00 0.00 0.00 66 1001.3
20240518143552 22 194 0.0 24.1 0.00 0.00 0.00 67 1001.2
20240518142552 22 188 22.5 32.2 0.00 0.00 0.00 67 1001.3
20240518141553 22 200 19.3 19.3 0.00 0.00 0.00 68 1001.3
20240518140552 21 197 12.9 27.4 0.00 0.00 0.00 68 1001.3
20240518134552 21 207 12.9 29.0 0.00 0.00 0.00 70 1001.2
20240518133551 20 188 12.9 29.0 0.00 0.00 0.00 71 1001.2
20240518132551 20 180 12.9 24.1 0.00 0.00 0.00 72 1001.4
20240518131552 20 153 9.7 24.1 0.00 0.00 0.00 72 1001.3
20240518130551 20 198 3.2 37.0 0.00 0.00 0.00 72 1001.5
20240518123551 18 158 3.2 22.5 0.00 0.00 0.00 77 1001.3
20240518122551 18 149 0.0 22.5 0.00 0.00 0.00 79 1001.2
20240518121551 18 152 0.0 0.0 0.00 0.00 0.00 81 1001.2
20240518115551 17 157 0.0 4.8 0.00 0.00 0.00 82 1001.2
20240518114551 17 160 0.0 17.7 0.00 0.00 0.00 82 1000.9
20240518113551 17 155 4.8 19.3 0.00 0.00 0.00 82 1000.7
20240518112551 17 150 12.9 17.7 0.00 0.00 0.00 83 1000.5
20240518111552 17 142 9.7 19.3 0.00 0.00 0.00 83 1000.5
20240518105551 18 139 12.9 22.5 0.00 0.00 0.00 77 1001.1
20240518104550 19 161 0.0 22.5 0.00 0.00 0.00 73 1001.3
20240518103550 19 171 12.9 24.1 0.00 0.00 0.00 70 1001.1
20240518102550 19 172 3.2 27.4 0.00 0.00 0.00 70 1001.0
20240518101550 19 155 17.7 32.2 0.00 0.00 0.00 69 1000.8
20240518094550 20 159 14.5 29.0 0.00 0.00 0.00 70 1000.5
20240518093550 20 163 12.9 33.8 0.00 0.00 0.00 68 1000.6
20240518092550 20 132 17.7 27.4 0.00 0.00 0.00 68 1000.4
20240518091550 20 192 0.0 27.4 0.00 0.00 0.00 67 1000.5
20240518090549 20 184 17.7 27.4 0.00 0.00 0.00 65 1000.5
20240518084549 21 157 17.7 32.2 0.00 0.00 0.00 61 1000.4
20240518083550 22 162 12.9 33.8 0.00 0.00 0.00 59 1000.6
20240518082550 22 148 4.8 33.8 0.00 0.00 0.00 58 1000.5
20240518081550 21 201 17.7 24.1 0.00 0.00 0.00 61 1000.5
20240518080549 21 187 8.0 33.8 0.00 0.00 0.00 64 1000.6
20240518074549 20 187 17.7 27.4 0.00 0.00 0.00 70 1000.5
20240518073549 20 198 9.7 46.7 0.00 0.00 0.00 70 1000.5
20240518072549 21 199 19.3 38.6 0.00 0.00 0.00 65 1000.0
20240518071549 20 166 22.5 33.8 0.00 0.00 0.00 64 1000.1
20240518070549 20 169 14.5 32.2 0.00 0.00 0.00 64 1000.5
20240518065549 20 185 8.0 27.4 0.00 0.00 0.00 66 1000.5
20240518064549 20 191 4.8 29.0 0.00 0.00 0.00 67 1000.7
20240518063549 20 202 24.1 33.8 0.00 0.00 0.00 67 1000.6
20240518062549 20 208 17.7 29.0 0.00 0.00 0.00 68 1000.5
20240518061549 20 170 12.9 29.0 0.00 0.00 0.00 68 1000.5
20240518060548 20 155 19.3 29.0 0.00 0.00 0.00 68 1000.6
20240518055549 20 194 8.0 24.1 0.00 0.00 0.00 68 1000.7
20240518054548 20 159 9.7 27.4 0.00 0.00 0.00 68 1000.8
20240518053548 20 170 12.9 37.0 0.00 0.00 0.00 68 1000.8
20240518052548 20 188 4.8 22.5 0.00 0.00 0.00 68 1000.8
20240518051548 20 160 3.2 37.0 0.00 0.00 0.00 66 1000.9
20240518050548 20 188 0.0 32.2 0.00 0.00 0.00 66 1000.8
20240518045548 20 188 17.7 24.1 0.00 0.00 0.00 68 1000.8
20240518044548 19 136 17.7 27.4 0.00 0.00 0.00 71 1000.8
20240518043548 18 169 3.2 27.4 0.00 0.00 0.00 77 1000.8
20240518042548 18 157 12.9 17.7 0.00 0.00 0.00 79 1001.0
20240518041548 18 200 8.0 29.0 0.00 0.00 0.00 80 1001.0
20240518040548 18 170 17.7 27.4 0.00 0.00 0.00 81 1000.9
20240518034548 19 165 12.9 22.5 0.00 0.00 0.00 73 1001.3
20240518033548 19 170 17.7 22.5 0.00 0.00 0.00 74 1001.0
20240518032547 19 161 12.9 24.1 0.00 0.00 0.00 75 1001.2
20240518031548 18 132 9.7 27.4 0.00 0.00 0.00 77 1001.2
20240518030547 18 157 12.9 27.4 0.00 0.00 0.00 79 1001.2
20240518025547 18 188 0.0 22.5 0.00 0.00 0.00 80 1001.3
20240518024547 18 200 12.9 22.5 0.00 0.00 0.00 81 1001.3
20240518022547 18 163 9.7 27.4 0.00 0.00 0.00 83 1001.6
20240518020547 18 189 9.7 27.4 0.00 0.00 0.00 84 1001.4
20240518015547 18 202 0.0 32.2 0.00 0.00 0.00 84 1001.4
20240518014547 18 152 17.7 32.2 0.00 0.00 0.00 81 1001.6
20240518013547 18 169 3.2 32.2 0.00 0.00 0.00 80 1001.5
20240518012547 18 172 9.7 37.0 0.00 0.00 0.00 79 1002.0
20240518011547 18 159 0.0 27.4 0.00 0.00 0.00 82 1002.1
20240518010546 18 142 12.9 29.0 0.00 0.00 0.00 82 1002.2
20240518005546 18 170 4.8 33.8 0.00 0.00 0.00 82 1002.0
20240518003547 18 206 0.0 0.0 0.00 0.00 0.00 79 1002.7
20240517235546 25 255 8.0 24.1 0.00 0.00 0.00 58 1001.8
20240517234546 26 207 0.0 12.9 0.00 0.00 0.00 50 1000.6
20240517233545 27 202 0.0 12.9 0.00 0.00 0.00 44 1000.2
20240517232546 27 202 3.2 22.5 0.00 0.00 0.00 40 999.8
20240517231545 27 192 3.2 19.3 0.00 0.00 0.00 37 999.5
20240517225545 27 172 4.8 27.4 0.00 0.00 0.00 37 999.4
20240517223545 28 177 4.8 32.2 0.00 0.00 0.00 35 999.3
20240517222545 28 157 17.7 27.4 0.00 0.00 0.00 37 999.3
20240517221544 28 160 9.7 22.5 0.00 0.00 0.00 38 999.5
20240517220544 28 179 0.0 29.0 0.00 0.00 0.00 39 999.6
20240517215545 28 173 14.5 19.3 0.00 0.00 0.00 39 999.5
20240517214545 28 187 12.9 29.0 0.00 0.00 0.00 38 1000.0
20240517213545 28 200 0.0 22.5 0.00 0.00 0.00 40 999.8
20240517212544 28 207 0.0 14.5 0.00 0.00 0.00 38 1000.0
20240517211544 28 204 0.0 27.4 0.00 0.00 0.00 38 1000.1
20240517205544 28 240 0.0 37.0 0.00 0.00 0.00 40 1000.1
20240517203544 28 190 4.8 24.1 0.00 0.00 0.00 41 1000.3
20240517202544 27 208 3.2 24.1 0.00 0.00 0.00 41 1000.4
20240517201544 27 216 19.3 29.0 0.00 0.00 0.00 41 1000.6
20240517200543 27 204 22.5 29.0 0.00 0.00 0.00 41 1000.7
20240517195544 27 155 14.5 27.4 0.00 0.00 0.00 42 1000.7